Regional Weather Roundup
Issued by NWS

Home | Current Version | Previous Version | Graphics & Text | Print | Product List | Glossary On
Versions: 1 2 3 4 5 6 7 8 9 10 11 12 13 14 15 16 17 18 19 20 21 22 23 24 25 26 27 28 29 30 31 32 33 34 35 36 37 38 39 40 41 42 43 44 45 46 47 48 49 50
000
ASUS43 KLMK 021602
RWRKY
KENTUCKY REGIONAL WEATHER ROUNDUP
NATIONAL WEATHER SERVICE LOUISVILLE KY
1100 AM EST FRI DEC 02 2016

NOTE "FAIR" INDICATES FEW OR NO CLOUDS BELOW 12,000 FEET
WITH NO SIGNIFICANT WEATHER AND/OR OBSTRUCTIONS TO VISIBILITY.

KYZ001>023-026-027-061>063-070>075-021700-
WESTERN AND SOUTH CENTRAL KENTUCKY

CITY           SKY/WX    TMP DP  RH WIND       PRES   REMARKS
PADUCAH        SUNNY     46  31  55 NE3       30.29R
HENDERSON      SUNNY     41  32  70 W7        30.28R
OWENSBORO      SUNNY     41  33  73 NW7       30.29R
HOPKINSVILLE   SUNNY     45  34  66 NW5       30.28R
BOWLING GREEN  SUNNY     46  32  58 W3        30.28R
GLASGOW        SUNNY     44  33  64 SW7       30.27R
$$

KYZ024-025-028>034-038-045-046-053-021700-
NORTH CENTRAL KENTUCKY

CITY           SKY/WX    TMP DP  RH WIND       PRES   REMARKS
LOUISVILLE/SDF MOSUNNY   43  29  57 VRB3      30.26R
LOUISVILLE/LOU SUNNY     41  30  65 SW5       30.26R
FORT KNOX      SUNNY     42  31  65 VRB3      30.23R
$$

KYZ035>037-039>044-047>052-055>060-089>105-021700-
NORTHEAST KENTUCKY

CITY           SKY/WX    TMP DP  RH WIND       PRES   REMARKS
LEXINGTON      PTSUNNY   39  29  67 W9        30.24R WCI  33
COVINGTON      CLOUDY    37  30  75 SW6       30.20R WCI  32
FRANKFORT      CLOUDY    40  30  67 SW7       30.24R
$$

KYZ054-064>069-076>088-106>120-021700-
SOUTHEAST KENTUCKY

CITY           SKY/WX    TMP DP  RH WIND       PRES   REMARKS
JACKSON        SUNNY     41  31  67 W7        30.22R
LONDON         SUNNY     42  29  59 W12       30.23R
SOMERSET       SUNNY     41  32  70 W7        30.26R
MIDDLESBORO    SUNNY     37  34  88 CALM      30.25S
MONTICELLO     SUNNY     46  32  58 W16       30.27R
$$





USA.gov is the U.S. government's official web portal to all federal, state and local government web resources and services.